Tabellarische Ansicht des 3.6.2016


Die einzelnen Werte des Tages

Uhrzeit Temperatur Luftdruck Luftfeuchte Wind Hi-Wind Taupunkt THW Index Wind Chill Heat Index Solar- strahlung Regen

00:00

15.7 C

1008.4 hpa

89 %

0.0 km/h aus 115

0.0 km/h aus ---

13.9 C

15.9 C

15.7 C

15.9 C

0 W/m

0.00 mm

00:05

15.7 C

1008.4 hpa

90 %

0.0 km/h aus 111

0.0 km/h aus ---

14.0 C

15.8 C

15.7 C

15.8 C

0 W/m

0.00 mm

00:10

15.6 C

1008.4 hpa

89 %

0.0 km/h aus 115

0.0 km/h aus ---

13.7 C

15.7 C

15.6 C

15.7 C

0 W/m

0.00 mm

00:15

15.5 C

1008.5 hpa

89 %

0.0 km/h aus 117

0.0 km/h aus ---

13.7 C

15.7 C

15.5 C

15.7 C

0 W/m

0.00 mm

00:20

15.4 C

1008.5 hpa

90 %

0.0 km/h aus 116

0.0 km/h aus ---

13.8 C

15.6 C

15.4 C

15.6 C

0 W/m

0.00 mm

00:25

15.4 C

1008.5 hpa

90 %

0.0 km/h aus 116

0.0 km/h aus ---

13.8 C

15.6 C

15.4 C

15.6 C

0 W/m

0.00 mm

00:30

15.3 C

1008.5 hpa

91 %

0.0 km/h aus 115

0.0 km/h aus ---

13.9 C

15.5 C

15.3 C

15.5 C

0 W/m

0.00 mm

00:35

15.3 C

1008.5 hpa

91 %

0.0 km/h aus 116

0.0 km/h aus ---

13.9 C

15.5 C

15.3 C

15.5 C

0 W/m

0.25 mm

00:40

15.3 C

1008.5 hpa

92 %

0.0 km/h aus 117

0.0 km/h aus ---

14.0 C

15.5 C

15.3 C

15.5 C

0 W/m

0.00 mm

00:45

15.3 C

1008.4 hpa

92 %

0.0 km/h aus 117

0.0 km/h aus ---

14.0 C

15.5 C

15.3 C

15.5 C

0 W/m

0.00 mm

00:50

15.3 C

1008.4 hpa

92 %

0.0 km/h aus 116

0.0 km/h aus ---

14.0 C

15.4 C

15.3 C

15.4 C

0 W/m

0.00 mm

00:55

15.2 C

1008.4 hpa

92 %

0.0 km/h aus 112

0.0 km/h aus ---

13.9 C

15.4 C

15.2 C

15.4 C

0 W/m

0.00 mm

01:00

15.2 C

1008.4 hpa

92 %

0.0 km/h aus 115

0.0 km/h aus ---

13.9 C

15.3 C

15.2 C

15.3 C

0 W/m

0.00 mm

01:05

15.2 C

1008.4 hpa

92 %

0.0 km/h aus 116

0.0 km/h aus ---

13.9 C

15.3 C

15.2 C

15.3 C

0 W/m

0.00 mm

01:10

15.2 C

1008.4 hpa

92 %

0.0 km/h aus 116

0.0 km/h aus ---

13.9 C

15.3 C

15.2 C

15.3 C

0 W/m

0.00 mm

01:15

15.1 C

1008.3 hpa

92 %

0.0 km/h aus 117

0.0 km/h aus ---

13.8 C

15.3 C

15.1 C

15.3 C

0 W/m

0.00 mm

01:20

15.0 C

1008.3 hpa

92 %

0.0 km/h aus 114

0.0 km/h aus ---

13.7 C

15.2 C

15.0 C

15.2 C

0 W/m

0.00 mm

01:25

14.9 C

1008.3 hpa

92 %

0.0 km/h aus 115

0.0 km/h aus ---

13.7 C

15.1 C

14.9 C

15.1 C

0 W/m

0.00 mm

01:30

14.8 C

1008.3 hpa

92 %

0.0 km/h aus 116

0.0 km/h aus ---

13.5 C

15.0 C

14.8 C

15.0 C

0 W/m

0.00 mm

01:35

14.7 C

1008.3 hpa

91 %

0.0 km/h aus 117

0.0 km/h aus ---

13.3 C

14.8 C

14.7 C

14.8 C

0 W/m

0.00 mm

01:40

14.7 C

1008.3 hpa

91 %

0.0 km/h aus 116

0.0 km/h aus ---

13.2 C

14.8 C

14.7 C

14.8 C

0 W/m

0.00 mm

01:45

14.6 C

1008.4 hpa

91 %

0.0 km/h aus 115

0.0 km/h aus ---

13.1 C

14.7 C

14.6 C

14.7 C

0 W/m

0.00 mm

01:50

14.4 C

1008.4 hpa

91 %

0.0 km/h aus 116

0.0 km/h aus ---

13.0 C

14.5 C

14.4 C

14.5 C

0 W/m

0.00 mm

01:55

14.3 C

1008.4 hpa

91 %

0.0 km/h aus 116

0.0 km/h aus ---

12.9 C

14.4 C

14.3 C

14.4 C

0 W/m

0.00 mm

02:00

14.3 C

1008.5 hpa

91 %

0.0 km/h aus 117

0.0 km/h aus ---

12.8 C

14.3 C

14.3 C

14.3 C

0 W/m

0.00 mm

02:05

14.2 C

1008.5 hpa

91 %

0.0 km/h aus 117

0.0 km/h aus ---

12.7 C

14.2 C

14.2 C

14.2 C

0 W/m

0.00 mm

02:10

14.1 C

1008.5 hpa

92 %

0.0 km/h aus 114

0.0 km/h aus ---

12.8 C

14.2 C

14.1 C

14.2 C

0 W/m

0.00 mm

02:15

14.1 C

1008.5 hpa

92 %

0.0 km/h aus 115

0.0 km/h aus ---

12.8 C

14.2 C

14.1 C

14.2 C

0 W/m

0.00 mm

02:20

14.0 C

1008.5 hpa

92 %

0.0 km/h aus 117

0.0 km/h aus ---

12.7 C

14.1 C

14.0 C

14.1 C

0 W/m

0.00 mm

02:25

13.9 C

1008.5 hpa

92 %

0.0 km/h aus 117

0.0 km/h aus ---

12.7 C

14.0 C

13.9 C

14.0 C

0 W/m

0.00 mm

02:30

13.9 C

1008.5 hpa

92 %

0.0 km/h aus 117

0.0 km/h aus ---

12.6 C

13.9 C

13.9 C

13.9 C

0 W/m

0.00 mm

02:35

13.8 C

1008.5 hpa

92 %

0.0 km/h aus 116

0.0 km/h aus ---

12.6 C

13.9 C

13.8 C

13.9 C

0 W/m

0.00 mm

02:40

13.8 C

1008.5 hpa

92 %

0.0 km/h aus 113

0.0 km/h aus ---

12.6 C

13.9 C

13.8 C

13.9 C

0 W/m

0.00 mm

02:45

13.8 C

1008.5 hpa

92 %

0.0 km/h aus 117

0.0 km/h aus ---

12.5 C

13.8 C

13.8 C

13.8 C

0 W/m

0.00 mm

02:50

13.8 C

1008.5 hpa

92 %

0.0 km/h aus 117

0.0 km/h aus ---

12.5 C

13.8 C

13.8 C

13.8 C

0 W/m

0.00 mm

02:55

13.7 C

1008.5 hpa

92 %

0.0 km/h aus 116

0.0 km/h aus ---

12.4 C

13.8 C

13.7 C

13.8 C

0 W/m

0.00 mm

03:00

13.7 C

1008.4 hpa

93 %

0.0 km/h aus 117

1.6 km/h aus NE

12.6 C

13.8 C

13.7 C

13.8 C

0 W/m

0.00 mm

03:05

13.7 C

1008.4 hpa

93 %

0.0 km/h aus 114

0.0 km/h aus ---

12.6 C

13.8 C

13.7 C

13.8 C

0 W/m

0.00 mm

03:10

13.7 C

1008.4 hpa

93 %

0.0 km/h aus 116

0.0 km/h aus ---

12.6 C

13.8 C

13.7 C

13.8 C

0 W/m

0.00 mm

03:15

13.7 C

1008.5 hpa

93 %

0.0 km/h aus 116

0.0 km/h aus ---

12.6 C

13.8 C

13.7 C

13.8 C

0 W/m

0.00 mm

03:20

13.7 C

1008.5 hpa

93 %

0.0 km/h aus 117

0.0 km/h aus ---

12.6 C

13.8 C

13.7 C

13.8 C

0 W/m

0.00 mm

03:25

13.7 C

1008.5 hpa

93 %

0.0 km/h aus 117

0.0 km/h aus ---

12.6 C

13.8 C

13.7 C

13.8 C

0 W/m

0.00 mm

03:30

13.7 C

1008.4 hpa

93 %

0.0 km/h aus 113

0.0 km/h aus ---

12.6 C

13.8 C

13.7 C

13.8 C

0 W/m

0.00 mm

03:35

13.6 C

1008.4 hpa

93 %

0.0 km/h aus 115

0.0 km/h aus ---

12.5 C

13.7 C

13.6 C

13.7 C

0 W/m

0.00 mm

03:40

13.6 C

1008.4 hpa

93 %

0.0 km/h aus 116

0.0 km/h aus ---

12.4 C

13.7 C

13.6 C

13.7 C

0 W/m

0.00 mm

03:45

13.5 C

1008.4 hpa

93 %

0.0 km/h aus 117

0.0 km/h aus ---

12.4 C

13.6 C

13.5 C

13.6 C

0 W/m

0.00 mm

03:50

13.4 C

1008.4 hpa

93 %

0.0 km/h aus 117

0.0 km/h aus ---

12.3 C

13.6 C

13.4 C

13.6 C

0 W/m

0.00 mm

03:55

13.3 C

1008.4 hpa

93 %

0.0 km/h aus 115

0.0 km/h aus ---

12.2 C

13.4 C

13.3 C

13.4 C

0 W/m

0.00 mm

04:00

13.3 C

1008.4 hpa

93 %

0.0 km/h aus 115

0.0 km/h aus ---

12.2 C

13.4 C

13.3 C

13.4 C

0 W/m

0.00 mm

04:05

13.2 C

1008.4 hpa

93 %

0.0 km/h aus 117

0.0 km/h aus ---

12.1 C

13.3 C

13.2 C

13.3 C

0 W/m

0.00 mm

04:10

13.1 C

1008.4 hpa

93 %

0.0 km/h aus 117

0.0 km/h aus ---

12.0 C

13.2 C

13.1 C

13.2 C

0 W/m

0.00 mm

04:15

13.1 C

1008.4 hpa

93 %

0.0 km/h aus 116

0.0 km/h aus ---

11.9 C

13.2 C

13.1 C

13.2 C

0 W/m

0.00 mm

04:20

13.1 C

1008.4 hpa

93 %

0.0 km/h aus 116

0.0 km/h aus ---

11.9 C

13.2 C

13.1 C

13.2 C

0 W/m

0.00 mm

04:25

13.1 C

1008.4 hpa

94 %

0.0 km/h aus 114

0.0 km/h aus ---

12.1 C

13.2 C

13.1 C

13.2 C

0 W/m

0.00 mm

04:30

13.1 C

1008.5 hpa

94 %

0.0 km/h aus 117

0.0 km/h aus ---

12.2 C

13.2 C

13.1 C

13.2 C

0 W/m

0.00 mm

04:35

13.1 C

1008.5 hpa

94 %

0.0 km/h aus 117

0.0 km/h aus ---

12.2 C

13.2 C

13.1 C

13.2 C

0 W/m

0.00 mm

04:40

13.2 C

1008.5 hpa

94 %

0.0 km/h aus 117

0.0 km/h aus ---

12.2 C

13.3 C

13.2 C

13.3 C

0 W/m

0.00 mm

04:45

13.2 C

1008.5 hpa

95 %

0.0 km/h aus 117

0.0 km/h aus ---

12.4 C

13.3 C

13.2 C

13.3 C

0 W/m

0.00 mm

04:50

13.3 C

1008.5 hpa

95 %

0.0 km/h aus 114

0.0 km/h aus ---

12.5 C

13.4 C

13.3 C

13.4 C

0 W/m

0.00 mm

04:55

13.3 C

1008.5 hpa

95 %

0.0 km/h aus 115

0.0 km/h aus ---

12.5 C

13.4 C

13.3 C

13.4 C

0 W/m

0.00 mm

05:00

13.4 C

1008.5 hpa

95 %

0.0 km/h aus 118

0.0 km/h aus ---

12.6 C

13.5 C

13.4 C

13.5 C

0 W/m

0.00 mm

05:05

13.3 C

1008.5 hpa

95 %

0.0 km/h aus 116

0.0 km/h aus ---

12.5 C

13.4 C

13.3 C

13.4 C

0 W/m

0.00 mm

05:10

13.3 C

1008.5 hpa

95 %

0.0 km/h aus 116

0.0 km/h aus ---

12.5 C

13.4 C

13.3 C

13.4 C

0 W/m

0.00 mm

05:15

13.3 C

1008.6 hpa

95 %

0.0 km/h aus 115

0.0 km/h aus ---

12.5 C

13.4 C

13.3 C

13.4 C

5 W/m

0.00 mm

05:20

13.3 C

1008.6 hpa

94 %

0.0 km/h aus 114

0.0 km/h aus ---

12.4 C

13.4 C

13.3 C

13.4 C

7 W/m

0.00 mm

05:25

13.3 C

1008.6 hpa

95 %

0.0 km/h aus 117

0.0 km/h aus ---

12.5 C

13.4 C

13.3 C

13.4 C

9 W/m

0.00 mm

05:30

13.3 C

1008.6 hpa

95 %

0.0 km/h aus 117

0.0 km/h aus ---

12.5 C

13.4 C

13.3 C

13.4 C

13 W/m

0.00 mm

05:35

13.3 C

1008.6 hpa

95 %

0.0 km/h aus 115

0.0 km/h aus ---

12.5 C

13.4 C

13.3 C

13.4 C

17 W/m

0.00 mm

05:40

13.3 C

1008.6 hpa

95 %

0.0 km/h aus 115

0.0 km/h aus ---

12.5 C

13.4 C

13.3 C

13.4 C

21 W/m

0.00 mm

05:45

13.3 C

1008.9 hpa

95 %

0.0 km/h aus 114

0.0 km/h aus ---

12.5 C

13.4 C

13.3 C

13.4 C

21 W/m

0.00 mm

05:50

13.3 C

1008.9 hpa

95 %

0.0 km/h aus 117

0.0 km/h aus ---

12.5 C

13.4 C

13.3 C

13.4 C

19 W/m

0.00 mm

05:55

13.3 C

1008.9 hpa

95 %

0.0 km/h aus 117

0.0 km/h aus ---

12.5 C

13.4 C

13.3 C

13.4 C

20 W/m

0.00 mm

06:00

13.3 C

1008.9 hpa

95 %

0.0 km/h aus 116

0.0 km/h aus ---

12.5 C

13.4 C

13.3 C

13.4 C

23 W/m

0.00 mm

06:05

13.3 C

1008.9 hpa

95 %

0.0 km/h aus 118

0.0 km/h aus ---

12.5 C

13.4 C

13.3 C

13.4 C

27 W/m

0.00 mm

06:10

13.3 C

1008.9 hpa

95 %

0.0 km/h aus 113

0.0 km/h aus ---

12.5 C

13.4 C

13.3 C

13.4 C

36 W/m

0.00 mm

06:15

13.4 C

1009.0 hpa

95 %

0.0 km/h aus 115

0.0 km/h aus ---

12.6 C

13.5 C

13.4 C

13.5 C

41 W/m

0.00 mm

06:20

13.4 C

1009.0 hpa

95 %

0.0 km/h aus 117

0.0 km/h aus ---

12.7 C

13.6 C

13.4 C

13.6 C

47 W/m

0.00 mm

06:25

13.4 C

1009.0 hpa

95 %

0.0 km/h aus 116

0.0 km/h aus ---

12.7 C

13.6 C

13.4 C

13.6 C

39 W/m

0.00 mm

06:30

13.4 C

1008.9 hpa

95 %

0.0 km/h aus 117

0.0 km/h aus ---

12.7 C

13.6 C

13.4 C

13.6 C

44 W/m

0.00 mm

06:35

13.5 C

1008.9 hpa

95 %

0.0 km/h aus 111

0.0 km/h aus ---

12.7 C

13.6 C

13.5 C

13.6 C

58 W/m

0.00 mm

06:40

13.6 C

1008.9 hpa

96 %

0.0 km/h aus 116

0.0 km/h aus ---

12.9 C

13.7 C

13.6 C

13.7 C

80 W/m

0.00 mm

06:45

13.7 C

1008.8 hpa

96 %

0.0 km/h aus 117

0.0 km/h aus ---

13.0 C

13.8 C

13.7 C

13.8 C

115 W/m

0.00 mm

06:50

13.7 C

1008.8 hpa

96 %

0.0 km/h aus 117

0.0 km/h aus ---

13.1 C

13.8 C

13.7 C

13.8 C

129 W/m

0.00 mm

06:55

13.8 C

1008.8 hpa

96 %

0.0 km/h aus 116

0.0 km/h aus ---

13.2 C

13.9 C

13.8 C

13.9 C

145 W/m

0.00 mm

07:00

13.9 C

1008.9 hpa

96 %

0.0 km/h aus 115

0.0 km/h aus ---

13.3 C

14.1 C

13.9 C

14.1 C

156 W/m

0.00 mm

07:05

14.1 C

1008.9 hpa

96 %

0.0 km/h aus 113

0.0 km/h aus ---

13.4 C

14.2 C

14.1 C

14.2 C

174 W/m

0.00 mm

07:10

14.4 C

1008.9 hpa

97 %

0.0 km/h aus 118

0.0 km/h aus ---

13.9 C

14.6 C

14.4 C

14.6 C

206 W/m

0.00 mm

07:15

14.6 C

1009.0 hpa

97 %

0.0 km/h aus 117

0.0 km/h aus ---

14.1 C

14.8 C

14.6 C

14.8 C

230 W/m

0.00 mm

07:20

14.7 C

1009.0 hpa

97 %

0.0 km/h aus 116

0.0 km/h aus ---

14.3 C

14.9 C

14.7 C

14.9 C

246 W/m

0.00 mm

07:25

14.8 C

1009.0 hpa

97 %

0.0 km/h aus 114

0.0 km/h aus ---

14.3 C

15.0 C

14.8 C

15.0 C

196 W/m

0.00 mm

07:30

14.9 C

1009.1 hpa

97 %

0.0 km/h aus 115

0.0 km/h aus ---

14.5 C

15.2 C

14.9 C

15.2 C

202 W/m

0.00 mm

07:35

15.0 C

1009.1 hpa

97 %

0.0 km/h aus 116

0.0 km/h aus ---

14.5 C

15.2 C

15.0 C

15.2 C

182 W/m

0.00 mm

07:40

15.0 C

1009.1 hpa

97 %

0.0 km/h aus 117

0.0 km/h aus ---

14.5 C

15.2 C

15.0 C

15.2 C

186 W/m

0.00 mm

07:45

15.2 C

1009.1 hpa

97 %

0.0 km/h aus 116

0.0 km/h aus ---

14.7 C

15.5 C

15.2 C

15.5 C

214 W/m

0.00 mm

07:50

15.5 C

1009.1 hpa

98 %

0.0 km/h aus 115

0.0 km/h aus ---

15.2 C

15.8 C

15.5 C

15.8 C

210 W/m

0.00 mm

07:55

15.5 C

1009.1 hpa

97 %

0.0 km/h aus 116

0.0 km/h aus ---

15.0 C

15.8 C

15.5 C

15.8 C

207 W/m

0.00 mm

08:00

15.6 C

1009.1 hpa

97 %

0.0 km/h aus 116

1.6 km/h aus NE

15.1 C

15.9 C

15.6 C

15.9 C

156 W/m

0.00 mm

08:05

15.6 C

1009.1 hpa

97 %

0.0 km/h aus 116

1.6 km/h aus NE

15.1 C

15.8 C

15.6 C

15.8 C

160 W/m

0.00 mm

08:10

15.6 C

1009.1 hpa

97 %

0.0 km/h aus 116

0.0 km/h aus ---

15.1 C

15.9 C

15.6 C

15.9 C

173 W/m

0.00 mm

08:15

15.7 C

1009.1 hpa

97 %

0.0 km/h aus 115

0.0 km/h aus ---

15.2 C

16.0 C

15.7 C

16.0 C

290 W/m

0.00 mm

08:20

15.8 C

1009.1 hpa

97 %

0.0 km/h aus 116

0.0 km/h aus ---

15.3 C

16.1 C

15.8 C

16.1 C

248 W/m

0.00 mm

08:25

15.7 C

1009.1 hpa

97 %

0.0 km/h aus 117

0.0 km/h aus ---

15.2 C

16.0 C

15.7 C

16.0 C

247 W/m

0.00 mm

08:30

15.8 C

1009.4 hpa

97 %

0.0 km/h aus 115

1.6 km/h aus NE

15.4 C

16.1 C

15.8 C

16.1 C

260 W/m

0.00 mm

08:35

16.1 C

1009.4 hpa

97 %

0.0 km/h aus 117

0.0 km/h aus ---

15.6 C

16.4 C

16.1 C

16.4 C

264 W/m

0.00 mm

08:40

16.1 C

1009.4 hpa

97 %

0.0 km/h aus 111

0.0 km/h aus ---

15.6 C

16.4 C

16.1 C

16.4 C

278 W/m

0.00 mm

08:45

16.3 C

1009.3 hpa

97 %

0.0 km/h aus 116

1.6 km/h aus NE

15.9 C

16.7 C

16.3 C

16.7 C

363 W/m

0.00 mm

08:50

16.6 C

1009.3 hpa

97 %

0.0 km/h aus 117

1.6 km/h aus NE

16.1 C

17.0 C

16.6 C

17.0 C

316 W/m

0.00 mm

08:55

16.5 C

1009.3 hpa

96 %

0.0 km/h aus 117

0.0 km/h aus ---

15.9 C

16.9 C

16.5 C

16.9 C

176 W/m

0.00 mm

09:00

16.4 C

1009.6 hpa

96 %

0.0 km/h aus 116

1.6 km/h aus NE

15.8 C

16.8 C

16.4 C

16.8 C

133 W/m

0.00 mm

09:05

16.6 C

1009.6 hpa

96 %

0.0 km/h aus 114

1.6 km/h aus NE

15.9 C

16.9 C

16.6 C

16.9 C

202 W/m

0.00 mm

09:10

16.6 C

1009.6 hpa

96 %

1.6 km/h aus 117

6.4 km/h aus NE

15.9 C

16.9 C

16.6 C

16.9 C

197 W/m

0.00 mm

09:15

16.6 C

1009.6 hpa

95 %

1.6 km/h aus 117

6.4 km/h aus NE

15.8 C

16.9 C

16.6 C

16.9 C

212 W/m

0.00 mm

09:20

16.5 C

1009.6 hpa

96 %

0.0 km/h aus 116

0.0 km/h aus ---

15.9 C

16.9 C

16.5 C

16.9 C

238 W/m

0.00 mm

09:25

16.8 C

1009.6 hpa

96 %

1.6 km/h aus 115

4.8 km/h aus NE

16.2 C

17.3 C

16.8 C

17.3 C

282 W/m

0.00 mm

09:30

16.8 C

1009.5 hpa

95 %

0.0 km/h aus 87

1.6 km/h aus NE

16.0 C

17.2 C

16.8 C

17.2 C

282 W/m

0.00 mm

09:35

16.9 C

1009.5 hpa

95 %

0.0 km/h aus 117

0.0 km/h aus ---

16.1 C

17.4 C

16.9 C

17.4 C

297 W/m

0.00 mm

09:40

17.2 C

1009.5 hpa

95 %

0.0 km/h aus 117

1.6 km/h aus NE

16.4 C

17.6 C

17.2 C

17.6 C

429 W/m

0.00 mm

09:45

17.2 C

1009.5 hpa

94 %

0.0 km/h aus 117

0.0 km/h aus ---

16.2 C

17.7 C

17.2 C

17.7 C

261 W/m

0.00 mm

09:50

17.1 C

1009.5 hpa

94 %

0.0 km/h aus 115

1.6 km/h aus NE

16.1 C

17.6 C

17.1 C

17.6 C

212 W/m

0.00 mm

09:55

17.2 C

1009.5 hpa

94 %

1.6 km/h aus 116

8.0 km/h aus NE

16.2 C

17.7 C

17.2 C

17.7 C

197 W/m

0.00 mm

10:00

17.2 C

1009.5 hpa

94 %

1.6 km/h aus 117

6.4 km/h aus NE

16.2 C

17.7 C

17.2 C

17.7 C

198 W/m

0.00 mm

10:05

17.3 C

1009.5 hpa

95 %

1.6 km/h aus 117

4.8 km/h aus NE

16.5 C

17.8 C

17.3 C

17.8 C

221 W/m

0.00 mm

10:10

17.3 C

1009.5 hpa

94 %

0.0 km/h aus 117

1.6 km/h aus NE

16.4 C

17.8 C

17.3 C

17.8 C

218 W/m

0.00 mm

10:15

17.4 C

1009.4 hpa

94 %

0.0 km/h aus 113

0.0 km/h aus ---

16.5 C

17.9 C

17.4 C

17.9 C

168 W/m

0.00 mm

10:20

17.5 C

1009.4 hpa

94 %

0.0 km/h aus 117

0.0 km/h aus ---

16.5 C

18.0 C

17.5 C

18.0 C

175 W/m

0.00 mm

10:25

17.6 C

1009.4 hpa

93 %

0.0 km/h aus 117

0.0 km/h aus ---

16.4 C

18.1 C

17.6 C

18.1 C

228 W/m

0.00 mm

10:30

17.8 C

1009.3 hpa

94 %

1.6 km/h aus 116

6.4 km/h aus NE

16.9 C

18.4 C

17.8 C

18.4 C

327 W/m

0.00 mm

10:35

18.1 C

1009.3 hpa

93 %

3.2 km/h aus 115

6.4 km/h aus NE

16.9 C

18.6 C

18.1 C

18.6 C

345 W/m

0.00 mm

10:40

18.2 C

1009.3 hpa

92 %

1.6 km/h aus 115

6.4 km/h aus NE

16.8 C

18.7 C

18.2 C

18.7 C

297 W/m

0.00 mm

10:45

18.4 C

1009.2 hpa

92 %

0.0 km/h aus 117

6.4 km/h aus NE

17.1 C

19.0 C

18.4 C

19.0 C

308 W/m

0.00 mm

10:50

18.7 C

1009.2 hpa

92 %

3.2 km/h aus 117

6.4 km/h aus NE

17.3 C

19.3 C

18.7 C

19.3 C

345 W/m

0.00 mm

10:55

18.8 C

1009.2 hpa

91 %

1.6 km/h aus 117

6.4 km/h aus NE

17.3 C

19.6 C

18.8 C

19.6 C

393 W/m

0.00 mm

11:00

18.9 C

1009.3 hpa

90 %

0.0 km/h aus 115

3.2 km/h aus NE

17.2 C

19.6 C

18.9 C

19.6 C

470 W/m

0.00 mm

11:05

19.5 C

1009.3 hpa

92 %

4.8 km/h aus 116

8.0 km/h aus N

18.2 C

20.4 C

19.5 C

20.4 C

605 W/m

0.00 mm

11:10

19.9 C

1009.3 hpa

89 %

0.0 km/h aus 117

4.8 km/h aus NNW

18.0 C

20.8 C

19.9 C

20.8 C

768 W/m

0.00 mm

11:15

20.3 C

1009.2 hpa

89 %

0.0 km/h aus 117

1.6 km/h aus NNW

18.5 C

21.3 C

20.3 C

21.3 C

828 W/m

0.00 mm

11:20

21.2 C

1009.2 hpa

86 %

0.0 km/h aus 117

4.8 km/h aus NNW

18.7 C

22.1 C

21.2 C

22.1 C

836 W/m

0.00 mm

11:25

21.3 C

1009.2 hpa

85 %

1.6 km/h aus 115

8.0 km/h aus NNW

18.7 C

22.2 C

21.3 C

22.2 C

845 W/m

0.00 mm

11:30

21.3 C

1009.2 hpa

85 %

4.8 km/h aus 117

11.3 km/h aus NW

18.7 C

22.2 C

21.3 C

22.2 C

862 W/m

0.00 mm

11:35

21.8 C

1009.2 hpa

82 %

6.4 km/h aus 117

11.3 km/h aus N

18.6 C

22.7 C

21.8 C

22.7 C

837 W/m

0.00 mm

11:40

21.7 C

1009.2 hpa

82 %

3.2 km/h aus 117

8.0 km/h aus NNW

18.5 C

22.5 C

21.7 C

22.5 C

915 W/m

0.00 mm

11:45

21.6 C

1009.2 hpa

83 %

4.8 km/h aus 115

11.3 km/h aus NW

18.5 C

22.4 C

21.6 C

22.4 C

357 W/m

0.00 mm

11:50

21.9 C

1009.2 hpa

83 %

8.0 km/h aus 115

14.5 km/h aus NNW

18.9 C

22.8 C

21.9 C

22.8 C

598 W/m

0.00 mm

11:55

22.2 C

1009.2 hpa

81 %

8.0 km/h aus 117

14.5 km/h aus N

18.8 C

23.0 C

22.2 C

23.0 C

868 W/m

0.00 mm

12:00

22.6 C

1009.1 hpa

80 %

4.8 km/h aus 117

16.1 km/h aus NNW

18.9 C

23.4 C

22.6 C

23.4 C

919 W/m

0.00 mm

12:05

22.9 C

1009.1 hpa

81 %

8.0 km/h aus 116

17.7 km/h aus NNE

19.5 C

23.9 C

22.9 C

23.9 C

868 W/m

0.00 mm

12:10

23.1 C

1009.1 hpa

78 %

6.4 km/h aus 114

14.5 km/h aus NNE

19.0 C

24.1 C

23.1 C

24.1 C

892 W/m

0.00 mm

12:15

23.4 C

1009.1 hpa

77 %

6.4 km/h aus 116

16.1 km/h aus N

19.1 C

24.5 C

23.4 C

24.5 C

888 W/m

0.00 mm

12:20

23.4 C

1009.1 hpa

76 %

6.4 km/h aus 117

16.1 km/h aus NE

18.9 C

24.4 C

23.4 C

24.4 C

942 W/m

0.00 mm

12:25

23.6 C

1009.1 hpa

72 %

8.0 km/h aus 117

19.3 km/h aus N

18.3 C

24.6 C

23.6 C

24.6 C

910 W/m

0.00 mm

12:30

23.3 C

1009.0 hpa

73 %

11.3 km/h aus 116

24.1 km/h aus N

18.2 C

24.3 C

23.3 C

24.3 C

931 W/m

0.00 mm

12:35

23.6 C

1009.0 hpa

75 %

11.3 km/h aus 114

22.5 km/h aus N

18.9 C

24.7 C

23.6 C

24.7 C

968 W/m

0.00 mm

12:40

23.7 C

1009.0 hpa

75 %

9.7 km/h aus 116

19.3 km/h aus NNE

19.0 C

24.8 C

23.7 C

24.8 C

930 W/m

0.00 mm

12:45

23.8 C

1009.0 hpa

76 %

6.4 km/h aus 117

17.7 km/h aus NE

19.3 C

25.1 C

23.8 C

25.1 C

894 W/m

0.00 mm

12:50

24.1 C

1009.0 hpa

70 %

9.7 km/h aus 115

22.5 km/h aus NE

18.2 C

25.0 C

24.1 C

25.0 C

906 W/m

0.00 mm

12:55

24.0 C

1009.0 hpa

71 %

8.0 km/h aus 115

25.7 km/h aus NE

18.4 C

25.0 C

24.0 C

25.0 C

898 W/m

0.00 mm

13:00

23.8 C

1009.1 hpa

68 %

12.9 km/h aus 116

25.7 km/h aus N

17.6 C

24.4 C

23.6 C

24.7 C

893 W/m

0.00 mm

13:05

23.9 C

1009.1 hpa

68 %

11.3 km/h aus 117

22.5 km/h aus NNE

17.6 C

24.7 C

23.9 C

24.7 C

892 W/m

0.00 mm

13:10

24.1 C

1009.1 hpa

70 %

4.8 km/h aus 117

16.1 km/h aus NE

18.3 C

25.1 C

24.1 C

25.1 C

901 W/m

0.00 mm

13:15

24.1 C

1009.0 hpa

65 %

8.0 km/h aus 115

20.9 km/h aus NE

17.1 C

24.8 C

24.1 C

24.8 C

896 W/m

0.00 mm

13:20

24.1 C

1009.0 hpa

64 %

11.3 km/h aus 114

20.9 km/h aus NE

16.9 C

24.8 C

24.1 C

24.8 C

914 W/m

0.00 mm

13:25

24.2 C

1009.0 hpa

66 %

9.7 km/h aus 117

19.3 km/h aus ENE

17.4 C

24.9 C

24.2 C

24.9 C

908 W/m

0.00 mm

13:30

24.2 C

1008.9 hpa

64 %

6.4 km/h aus 118

14.5 km/h aus ENE

16.9 C

24.8 C

24.2 C

24.8 C

913 W/m

0.00 mm

13:35

24.2 C

1008.9 hpa

63 %

6.4 km/h aus 117

14.5 km/h aus NE

16.7 C

24.8 C

24.2 C

24.8 C

918 W/m

0.00 mm

13:40

24.5 C

1008.9 hpa

61 %

9.7 km/h aus 114

24.1 km/h aus ENE

16.5 C

24.9 C

24.5 C

24.9 C

922 W/m

0.00 mm

13:45

24.6 C

1008.7 hpa

62 %

8.0 km/h aus 117

19.3 km/h aus NE

16.8 C

25.1 C

24.6 C

25.1 C

912 W/m

0.00 mm

13:50

24.7 C

1008.7 hpa

60 %

9.7 km/h aus 117

20.9 km/h aus NNE

16.4 C

25.2 C

24.7 C

25.2 C

898 W/m

0.00 mm

13:55

24.8 C

1008.7 hpa

60 %

8.0 km/h aus 117

16.1 km/h aus NE

16.5 C

25.2 C

24.8 C

25.2 C

923 W/m

0.00 mm

14:00

24.9 C

1008.7 hpa

61 %

4.8 km/h aus 114

16.1 km/h aus NE

16.9 C

25.4 C

24.9 C

25.4 C

919 W/m

0.00 mm

14:05

24.8 C

1008.7 hpa

57 %

8.0 km/h aus 114

20.9 km/h aus NE

15.7 C

25.1 C

24.8 C

25.1 C

970 W/m

0.00 mm

14:10

25.1 C

1008.7 hpa

58 %

8.0 km/h aus 117

22.5 km/h aus NE

16.2 C

25.4 C

25.1 C

25.4 C

981 W/m

0.00 mm

14:15

25.2 C

1008.5 hpa

56 %

8.0 km/h aus 117

20.9 km/h aus NE

15.8 C

25.5 C

25.2 C

25.5 C

931 W/m

0.00 mm

14:20

25.2 C

1008.5 hpa

57 %

6.4 km/h aus 117

20.9 km/h aus NE

16.0 C

25.4 C

25.2 C

25.4 C

784 W/m

0.00 mm

14:25

24.9 C

1008.5 hpa

57 %

6.4 km/h aus 114

20.9 km/h aus NNE

15.8 C

25.2 C

24.9 C

25.2 C

795 W/m

0.00 mm

14:30

25.0 C

1008.5 hpa

59 %

6.4 km/h aus 115

14.5 km/h aus NE

16.4 C

25.4 C

25.0 C

25.4 C

944 W/m

0.00 mm

14:35

25.4 C

1008.5 hpa

59 %

6.4 km/h aus 117

20.9 km/h aus NNE

16.8 C

25.9 C

25.4 C

25.9 C

907 W/m

0.00 mm

14:40

25.6 C

1008.5 hpa

57 %

6.4 km/h aus 117

11.3 km/h aus NNE

16.4 C

25.9 C

25.6 C

25.9 C

897 W/m

0.00 mm

14:45

25.5 C

1008.2 hpa

60 %

4.8 km/h aus 116

11.3 km/h aus NNE

17.2 C

26.0 C

25.5 C

26.0 C

986 W/m

0.00 mm

14:50

25.9 C

1008.2 hpa

55 %

6.4 km/h aus 115

17.7 km/h aus NE

16.2 C

26.2 C

25.9 C

26.2 C

1006 W/m

0.00 mm

14:55

25.3 C

1008.2 hpa

56 %

9.7 km/h aus 117

25.7 km/h aus N

15.9 C

25.6 C

25.3 C

25.6 C

447 W/m

0.00 mm

15:00

25.1 C

1008.1 hpa

59 %

8.0 km/h aus 117

17.7 km/h aus NE

16.5 C

25.5 C

25.1 C

25.5 C

624 W/m

0.00 mm

15:05

25.5 C

1008.1 hpa

57 %

8.0 km/h aus 117

17.7 km/h aus NE

16.4 C

25.8 C

25.5 C

25.8 C

964 W/m

0.00 mm

15:10

25.7 C

1008.1 hpa

57 %

8.0 km/h aus 114

19.3 km/h aus NE

16.5 C

26.1 C

25.7 C

26.1 C

938 W/m

0.00 mm

15:15

25.6 C

1008.1 hpa

57 %

9.7 km/h aus 117

19.3 km/h aus NE

16.4 C

25.9 C

25.6 C

25.9 C

680 W/m

0.00 mm

15:20

25.0 C

1008.1 hpa

57 %

6.4 km/h aus 117

19.3 km/h aus NNW

15.9 C

25.3 C

25.0 C

25.3 C

297 W/m

0.00 mm

15:25

24.4 C

1008.1 hpa

58 %

3.2 km/h aus 117

14.5 km/h aus NNE

15.6 C

24.7 C

24.4 C

24.7 C

267 W/m

0.00 mm

15:30

24.1 C

1008.0 hpa

60 %

4.8 km/h aus 115

16.1 km/h aus NNE

15.9 C

24.6 C

24.1 C

24.6 C

235 W/m

0.00 mm

15:35

24.8 C

1008.0 hpa

59 %

3.2 km/h aus 114

9.7 km/h aus NNE

16.2 C

25.2 C

24.8 C

25.2 C

854 W/m

0.00 mm

15:40

25.6 C

1008.0 hpa

59 %

3.2 km/h aus 118

9.7 km/h aus NE

17.0 C

26.1 C

25.6 C

26.1 C

924 W/m

0.00 mm

15:45

25.4 C

1008.0 hpa

57 %

6.4 km/h aus 117

16.1 km/h aus NNE

16.3 C

25.8 C

25.4 C

25.8 C

884 W/m

0.00 mm

15:50

25.2 C

1008.0 hpa

58 %

8.0 km/h aus 117

17.7 km/h aus NE

16.3 C

25.5 C

25.2 C

25.5 C

413 W/m

0.00 mm

15:55

25.0 C

1008.0 hpa

60 %

3.2 km/h aus 114

14.5 km/h aus NNE

16.7 C

25.4 C

25.0 C

25.4 C

310 W/m

0.00 mm

16:00

25.1 C

1008.0 hpa

59 %

3.2 km/h aus 117

6.4 km/h aus NE

16.5 C

25.4 C

25.1 C

25.4 C

281 W/m

0.00 mm

16:05

25.4 C

1008.0 hpa

58 %

1.6 km/h aus 117

8.0 km/h aus N

16.5 C

25.8 C

25.4 C

25.8 C

727 W/m

0.00 mm

16:10

25.5 C

1008.0 hpa

55 %

9.7 km/h aus 117

24.1 km/h aus ENE

15.8 C

25.8 C

25.5 C

25.8 C

755 W/m

0.00 mm

16:15

26.0 C

1007.8 hpa

54 %

4.8 km/h aus 115

14.5 km/h aus NW

16.0 C

26.3 C

26.0 C

26.3 C

675 W/m

0.00 mm

16:20

25.9 C

1007.8 hpa

54 %

6.4 km/h aus 115

17.7 km/h aus NE

15.9 C

26.2 C

25.9 C

26.2 C

695 W/m

0.00 mm

16:25

25.8 C

1007.8 hpa

54 %

8.0 km/h aus 117

20.9 km/h aus NNE

15.8 C

26.1 C

25.8 C

26.1 C

691 W/m

0.00 mm

16:30

25.9 C

1007.7 hpa

52 %

6.4 km/h aus 117

17.7 km/h aus NNE

15.3 C

26.1 C

25.9 C

26.1 C

705 W/m

0.00 mm

16:35

25.8 C

1007.7 hpa

52 %

6.4 km/h aus 115

20.9 km/h aus ENE

15.2 C

26.0 C

25.8 C

26.0 C

689 W/m

0.00 mm

16:40

25.7 C

1007.7 hpa

54 %

3.2 km/h aus 113

14.5 km/h aus NNE

15.7 C

25.9 C

25.7 C

25.9 C

442 W/m

0.00 mm

16:45

25.4 C

1007.6 hpa

54 %

11.3 km/h aus 118

22.5 km/h aus NNE

15.4 C

25.6 C

25.4 C

25.6 C

267 W/m

0.00 mm

16:50

25.7 C

1007.6 hpa

56 %

6.4 km/h aus 117

19.3 km/h aus NE

16.2 C

26.0 C

25.7 C

26.0 C

564 W/m

0.00 mm

16:55

25.4 C

1007.6 hpa

55 %

6.4 km/h aus 117

22.5 km/h aus N

15.7 C

25.7 C

25.4 C

25.7 C

682 W/m

0.00 mm

17:00

25.7 C

1007.6 hpa

54 %

4.8 km/h aus 114

14.5 km/h aus NNE

15.7 C

25.9 C

25.7 C

25.9 C

690 W/m

0.00 mm

17:05

26.2 C

1007.6 hpa

54 %

3.2 km/h aus 116

14.5 km/h aus NNE

16.2 C

26.5 C

26.2 C

26.5 C

688 W/m

0.00 mm

17:10

26.0 C

1007.6 hpa

53 %

8.0 km/h aus 116

20.9 km/h aus ENE

15.7 C

26.2 C

26.0 C

26.2 C

539 W/m

0.00 mm

17:15

25.4 C

1007.5 hpa

53 %

8.0 km/h aus 117

17.7 km/h aus NE

15.2 C

25.6 C

25.4 C

25.6 C

265 W/m

0.00 mm

17:20

24.8 C

1007.5 hpa

56 %

4.8 km/h aus 115

11.3 km/h aus ENE

15.5 C

25.1 C

24.8 C

25.1 C

128 W/m

0.00 mm

17:25

24.3 C

1007.5 hpa

58 %

4.8 km/h aus 115

11.3 km/h aus ESE

15.5 C

24.7 C

24.3 C

24.7 C

100 W/m

0.00 mm

17:30

24.2 C

1007.5 hpa

60 %

3.2 km/h aus 116

16.1 km/h aus NNE

15.9 C

24.6 C

24.2 C

24.6 C

277 W/m

0.00 mm

17:35

24.9 C

1007.5 hpa

57 %

3.2 km/h aus 117

9.7 km/h aus NE

15.8 C

25.2 C

24.9 C

25.2 C

496 W/m

0.00 mm

17:40

25.2 C

1007.5 hpa

56 %

4.8 km/h aus 116

12.9 km/h aus NE

15.8 C

25.4 C

25.2 C

25.4 C

472 W/m

0.00 mm

17:45

25.1 C

1007.5 hpa

55 %

1.6 km/h aus 116

8.0 km/h aus NE

15.4 C

25.2 C

25.1 C

25.2 C

442 W/m

0.00 mm

17:50

25.3 C

1007.5 hpa

55 %

1.6 km/h aus 117

9.7 km/h aus NE

15.6 C

25.6 C

25.3 C

25.6 C

495 W/m

0.00 mm

17:55

25.6 C

1007.5 hpa

55 %

1.6 km/h aus 116

8.0 km/h aus NE

15.8 C

25.8 C

25.6 C

25.8 C

537 W/m

0.00 mm

18:00

25.6 C

1007.5 hpa

54 %

6.4 km/h aus 117

16.1 km/h aus NE

15.6 C

25.8 C

25.6 C

25.8 C

527 W/m

0.00 mm

18:05

25.5 C

1007.5 hpa

54 %

4.8 km/h aus 114

16.1 km/h aus NE

15.5 C

25.7 C

25.5 C

25.7 C

514 W/m

0.00 mm

18:10

25.4 C

1007.5 hpa

54 %

1.6 km/h aus 116

8.0 km/h aus ENE

15.5 C

25.7 C

25.4 C

25.7 C

216 W/m

0.00 mm

18:15

25.1 C

1007.5 hpa

56 %

3.2 km/h aus 117

9.7 km/h aus NE

15.7 C

25.3 C

25.1 C

25.3 C

163 W/m

0.00 mm

18:20

24.8 C

1007.5 hpa

55 %

4.8 km/h aus 116

16.1 km/h aus NE

15.2 C

25.0 C

24.8 C

25.0 C

239 W/m

0.00 mm

18:25

24.6 C

1007.5 hpa

57 %

3.2 km/h aus 115

8.0 km/h aus NNE

15.5 C

24.9 C

24.6 C

24.9 C

123 W/m

0.00 mm

18:30

24.4 C

1007.5 hpa

59 %

1.6 km/h aus 115

8.0 km/h aus NE

15.9 C

24.7 C

24.4 C

24.7 C

112 W/m

0.00 mm

18:35

24.4 C

1007.5 hpa

59 %

3.2 km/h aus 117

11.3 km/h aus NE

15.9 C

24.8 C

24.4 C

24.8 C

229 W/m

0.00 mm

18:40

24.3 C

1007.5 hpa

60 %

0.0 km/h aus 117

6.4 km/h aus ENE

16.0 C

24.7 C

24.3 C

24.7 C

185 W/m

0.00 mm

18:45

24.4 C

1007.5 hpa

59 %

0.0 km/h aus 117

8.0 km/h aus NNE

15.9 C

24.8 C

24.4 C

24.8 C

262 W/m

0.00 mm

18:50

24.3 C

1007.5 hpa

58 %

3.2 km/h aus 115

9.7 km/h aus NE

15.5 C

24.7 C

24.3 C

24.7 C

108 W/m

0.00 mm

18:55

24.2 C

1007.5 hpa

61 %

1.6 km/h aus 117

8.0 km/h aus ENE

16.2 C

24.7 C

24.2 C

24.7 C

232 W/m

0.00 mm

19:00

24.4 C

1007.5 hpa

59 %

1.6 km/h aus 116

6.4 km/h aus ENE

15.9 C

24.8 C

24.4 C

24.8 C

168 W/m

0.00 mm

19:05

24.6 C

1007.5 hpa

60 %

1.6 km/h aus 116

8.0 km/h aus NE

16.3 C

24.9 C

24.6 C

24.9 C

157 W/m

0.00 mm

19:10

24.6 C

1007.5 hpa

59 %

0.0 km/h aus 115

6.4 km/h aus NE

16.0 C

24.9 C

24.6 C

24.9 C

141 W/m

0.00 mm

19:15

24.6 C

1007.4 hpa

60 %

0.0 km/h aus 116

11.3 km/h aus NNE

16.3 C

24.9 C

24.6 C

24.9 C

117 W/m

0.00 mm

19:20

24.6 C

1007.4 hpa

60 %

1.6 km/h aus 116

9.7 km/h aus NE

16.3 C

24.9 C

24.6 C

24.9 C

99 W/m

0.00 mm

19:25

24.4 C

1007.4 hpa

59 %

3.2 km/h aus 117

11.3 km/h aus ENE

15.9 C

24.8 C

24.4 C

24.8 C

91 W/m

0.00 mm

19:30

24.3 C

1007.5 hpa

60 %

1.6 km/h aus 116

8.0 km/h aus NE

16.1 C

24.7 C

24.3 C

24.7 C

85 W/m

0.00 mm

19:35

24.2 C

1007.5 hpa

60 %

3.2 km/h aus 114

11.3 km/h aus NE

15.9 C

24.6 C

24.2 C

24.6 C

72 W/m

0.00 mm

19:40

24.1 C

1007.5 hpa

61 %

0.0 km/h aus 117

8.0 km/h aus NE

16.1 C

24.6 C

24.1 C

24.6 C

59 W/m

0.00 mm

19:45

23.8 C

1007.5 hpa

62 %

3.2 km/h aus 117

9.7 km/h aus NNE

16.1 C

24.4 C

23.8 C

24.4 C

57 W/m

0.00 mm

19:50

23.8 C

1007.5 hpa

61 %

1.6 km/h aus 117

14.5 km/h aus NNE

15.8 C

24.3 C

23.8 C

24.3 C

56 W/m

0.00 mm

19:55

23.7 C

1007.5 hpa

62 %

1.6 km/h aus 115

9.7 km/h aus NE

16.0 C

24.2 C

23.7 C

24.2 C

55 W/m

0.00 mm

20:00

23.6 C

1007.5 hpa

62 %

0.0 km/h aus 116

3.2 km/h aus NE

15.8 C

24.1 C

23.6 C

24.1 C

54 W/m

0.00 mm

20:05

23.4 C

1007.5 hpa

63 %

1.6 km/h aus 117

8.0 km/h aus NE

16.0 C

24.0 C

23.4 C

24.0 C

55 W/m

0.00 mm

20:10

23.4 C

1007.5 hpa

62 %

0.0 km/h aus 117

6.4 km/h aus NE

15.7 C

23.9 C

23.4 C

23.9 C

57 W/m

0.00 mm

20:15

23.4 C

1007.5 hpa

62 %

0.0 km/h aus 116

4.8 km/h aus NE

15.7 C

23.9 C

23.4 C

23.9 C

60 W/m

0.00 mm

20:20

23.4 C

1007.5 hpa

62 %

0.0 km/h aus 114

0.0 km/h aus ---

15.7 C

23.9 C

23.4 C

23.9 C

62 W/m

0.00 mm

20:25

23.4 C

1007.5 hpa

62 %

0.0 km/h aus 115

0.0 km/h aus ---

15.7 C

23.9 C

23.4 C

23.9 C

61 W/m

0.00 mm

20:30

23.4 C

1007.5 hpa

63 %

0.0 km/h aus 117

0.0 km/h aus ---

15.9 C

23.9 C

23.4 C

23.9 C

51 W/m

0.00 mm

20:35

23.3 C

1007.5 hpa

63 %

0.0 km/h aus 117

0.0 km/h aus ---

15.9 C

23.9 C

23.3 C

23.9 C

44 W/m

0.00 mm

20:40

23.3 C

1007.5 hpa

64 %

0.0 km/h aus 114

0.0 km/h aus ---

16.1 C

23.9 C

23.3 C

23.9 C

41 W/m

0.00 mm

20:45

23.3 C

1007.6 hpa

65 %

0.0 km/h aus 116

0.0 km/h aus ---

16.3 C

23.9 C

23.3 C

23.9 C

38 W/m

0.00 mm

20:50

23.2 C

1007.6 hpa

65 %

0.0 km/h aus 117

0.0 km/h aus ---

16.2 C

23.7 C

23.2 C

23.7 C

28 W/m

0.00 mm

20:55

23.1 C

1007.6 hpa

66 %

0.0 km/h aus 117

0.0 km/h aus ---

16.4 C

23.6 C

23.1 C

23.6 C

21 W/m

0.00 mm

21:00

23.0 C

1007.7 hpa

67 %

0.0 km/h aus 115

0.0 km/h aus ---

16.5 C

23.6 C

23.0 C

23.6 C

18 W/m

0.00 mm

21:05

22.9 C

1007.7 hpa

67 %

0.0 km/h aus 113

0.0 km/h aus ---

16.4 C

23.4 C

22.9 C

23.4 C

17 W/m

0.00 mm

21:10

22.7 C

1007.7 hpa

68 %

0.0 km/h aus 117

0.0 km/h aus ---

16.5 C

23.2 C

22.7 C

23.2 C

13 W/m

0.00 mm

21:15

22.6 C

1007.8 hpa

68 %

0.0 km/h aus 117

0.0 km/h aus ---

16.4 C

23.0 C

22.6 C

23.0 C

10 W/m

0.00 mm

21:20

22.4 C

1007.8 hpa

69 %

0.0 km/h aus 117

0.0 km/h aus ---

16.4 C

22.8 C

22.4 C

22.8 C

8 W/m

0.00 mm

21:25

22.2 C

1007.8 hpa

70 %

0.0 km/h aus 114

0.0 km/h aus ---

16.5 C

22.6 C

22.2 C

22.6 C

6 W/m

0.00 mm

21:30

22.1 C

1007.9 hpa

70 %

0.0 km/h aus 116

0.0 km/h aus ---

16.3 C

22.4 C

22.1 C

22.4 C

5 W/m

0.00 mm

21:35

21.8 C

1007.9 hpa

71 %

0.0 km/h aus 117

0.0 km/h aus ---

16.3 C

22.2 C

21.8 C

22.2 C

0 W/m

0.00 mm

21:40

21.7 C

1007.9 hpa

71 %

0.0 km/h aus 117

0.0 km/h aus ---

16.2 C

21.9 C

21.7 C

21.9 C

0 W/m

0.00 mm

21:45

21.4 C

1008.0 hpa

72 %

0.0 km/h aus 115

0.0 km/h aus ---

16.1 C

21.6 C

21.4 C

21.6 C

0 W/m

0.00 mm

21:50

21.2 C

1008.0 hpa

73 %

0.0 km/h aus 114

0.0 km/h aus ---

16.2 C

21.4 C

21.2 C

21.4 C

0 W/m

0.00 mm

21:55

21.0 C

1008.0 hpa

74 %

0.0 km/h aus 117

0.0 km/h aus ---

16.2 C

21.3 C

21.0 C

21.3 C

0 W/m

0.00 mm

22:00

20.8 C

1008.0 hpa

74 %

0.0 km/h aus 117

0.0 km/h aus ---

16.0 C

21.2 C

20.8 C

21.2 C

0 W/m

0.00 mm

22:05

20.6 C

1008.0 hpa

75 %

0.0 km/h aus 117

0.0 km/h aus ---

16.0 C

21.2 C

20.6 C

21.2 C

0 W/m

0.00 mm

22:10

20.4 C

1008.0 hpa

76 %

0.0 km/h aus 115

1.6 km/h aus NE

16.0 C

21.0 C

20.4 C

21.0 C

0 W/m

0.00 mm

22:15

20.2 C

1008.2 hpa

76 %

0.0 km/h aus 115

0.0 km/h aus ---

15.8 C

20.7 C

20.2 C

20.7 C

0 W/m

0.00 mm

22:20

20.0 C

1008.2 hpa

77 %

0.0 km/h aus 116

0.0 km/h aus ---

15.8 C

20.6 C

20.0 C

20.6 C

0 W/m

0.00 mm

22:25

19.8 C

1008.2 hpa

78 %

0.0 km/h aus 117

0.0 km/h aus ---

15.8 C

20.4 C

19.8 C

20.4 C

0 W/m

0.00 mm

22:30

19.5 C

1008.5 hpa

78 %

0.0 km/h aus 115

0.0 km/h aus ---

15.6 C

20.1 C

19.5 C

20.1 C

0 W/m

0.00 mm

22:35

19.3 C

1008.5 hpa

78 %

0.0 km/h aus 115

0.0 km/h aus ---

15.3 C

19.8 C

19.3 C

19.8 C

0 W/m

0.00 mm

22:40

19.1 C

1008.5 hpa

79 %

0.0 km/h aus 115

0.0 km/h aus ---

15.3 C

19.6 C

19.1 C

19.6 C

0 W/m

0.00 mm

22:45

18.8 C

1008.5 hpa

79 %

0.0 km/h aus 117

0.0 km/h aus ---

15.1 C

19.2 C

18.8 C

19.2 C

0 W/m

0.00 mm

22:50

18.6 C

1008.5 hpa

80 %

0.0 km/h aus 117

0.0 km/h aus ---

15.1 C

19.1 C

18.6 C

19.1 C

0 W/m

0.00 mm

22:55

18.4 C

1008.5 hpa

80 %

0.0 km/h aus 115

0.0 km/h aus ---

14.9 C

18.8 C

18.4 C

18.8 C

0 W/m

0.00 mm

23:00

18.3 C

1008.6 hpa

81 %

0.0 km/h aus 115

0.0 km/h aus ---

15.0 C

18.7 C

18.3 C

18.7 C

0 W/m

0.00 mm

23:05

18.2 C

1008.6 hpa

81 %

0.0 km/h aus 117

0.0 km/h aus ---

14.9 C

18.6 C

18.2 C

18.6 C

0 W/m

0.00 mm

23:10

18.0 C

1008.6 hpa

81 %

0.0 km/h aus 116

0.0 km/h aus ---

14.7 C

18.3 C

18.0 C

18.3 C

0 W/m

0.00 mm

23:15

17.9 C

1008.6 hpa

81 %

0.0 km/h aus 117

0.0 km/h aus ---

14.6 C

18.2 C

17.9 C

18.2 C

0 W/m

0.00 mm

23:20

17.8 C

1008.6 hpa

83 %

0.0 km/h aus 116

0.0 km/h aus ---

14.9 C

18.1 C

17.8 C

18.1 C

0 W/m

0.00 mm

23:25

17.7 C

1008.6 hpa

83 %

0.0 km/h aus 115

0.0 km/h aus ---

14.7 C

17.9 C

17.7 C

17.9 C

0 W/m

0.00 mm

23:30

17.6 C

1008.8 hpa

83 %

0.0 km/h aus 116

0.0 km/h aus ---

14.6 C

17.8 C

17.6 C

17.8 C

0 W/m

0.00 mm

23:35

17.6 C

1008.8 hpa

86 %

0.0 km/h aus 117

1.6 km/h aus NE

15.2 C

17.9 C

17.6 C

17.9 C

0 W/m

0.00 mm

23:40

17.6 C

1008.8 hpa

86 %

0.0 km/h aus 117

0.0 km/h aus ---

15.2 C

17.9 C

17.6 C

17.9 C

0 W/m

0.00 mm

23:45

17.5 C

1009.0 hpa

86 %

0.0 km/h aus 115

0.0 km/h aus ---

15.1 C

17.8 C

17.5 C

17.8 C

0 W/m

0.00 mm

23:50

17.4 C

1009.0 hpa

86 %

0.0 km/h aus 114

0.0 km/h aus ---

15.0 C

17.7 C

17.4 C

17.7 C

0 W/m

0.00 mm

23:55

17.3 C

1009.0 hpa

86 %

0.0 km/h aus 117

0.0 km/h aus ---

15.0 C

17.7 C

17.3 C

17.7 C

0 W/m

0.00 mm